{"data":{"norad_id":85027,"epoch":"2026-09-17T01:52:53.099040Z","epoch_age_seconds":310722,"freshness":"STALE","line1":"1 85027U          26260.07839235  .00000122  00000+0  19181-3 0  9992","line2":"2 85027  66.0410 139.8940 0169888  37.4162 323.8588 13.74351163642865","mean_motion":13.74351163,"eccentricity":0.0169888,"inclination_deg":66.041,"raan_deg":139.894,"arg_perigee_deg":37.4162,"mean_anomaly_deg":323.8588,"bstar":0.00019181,"rev_number":64286,"period_min":104.77671491591,"perigee_km":858.91729968386,"apogee_km":1109.0647407028,"semimajor_km":7362.1280201933,"source":"CELESTRAK","updated_at":"2026-09-20T09:00:32.445540Z"}}